SCP
0 0 0 0 0 0 0 0 0 0 0 0 0 0 0 0 0 0 0 0 0 0 0 0 0 0 0 0 0 0 0 0 0 0 -0 -0 -0 -0 0 0 0 0 0 0
0 0 0 0 0 0 0 0 0 0 0 0 0 0 0 0 0 0 0 0 0 0 0 0 0 0 0 0 0 0 0 0 0 0 0 0 0 0 0 0 0 0 0 0
0 0 0 0 0 0 0 0 0 0 0 0 0 0 0 0 0 0 0 0 0 0 0 0 0 0 0 0 0 0 0 0 0 0 0 0 0 0 0 0 0 0 0 0
0 0 0 0 0 0 0 0 0 0 0 0 0 0 0 0 0 0 0 0 0 0 0 0 0 0 0 0 0 0 0 0 0 0 0 0 0 0 0 0 0 0 0 0
0 0 0 0 0 0 0 0 0 0 0 0 0 0 0 0 0 0 0 0 0 0 0 0 0 0 0 0 0 0 0 0 0 0 0 0 0 0 0 0 0 0 0 0
0 0 0 0 0 0 0 0 0 0 0 0 0 0 0 0 0 0 0 0 0 0 0 0 0 0 0 0 0 0 0 0 0 0 0 0 0 0 0 0 0 0 0 0
0 0 0 0 0 0 0 0 0 0 0 0 0 0 0 0 0 0 0 0 0 0 0 0 0 0 0 0 0 0 0 0 0 0 0 0 0 0 0 0 0 0 0 0
0 0 0 0 0 0 0 0 0 0 0 0 0 0 0 0 0 0 0 0 0 0 0 0 0 0 0 0 0 0 0 0 0 0 0 0 0 0 0 0 0 0 0 0
0 0 0 0 0 0 0 0 0 0 0 0 0 0 0 0 0 0 0 0 0 0 0 0 0 0 0 0 0 0 0 0 0 0 0 0 0 0 0 0 0 0 0 0
0 0 0 0 0 0 0 0 0 0 0 0 0 0 0 0 0 0 0 0 0 0 0 0 0 0 0 0 0 0 0 0 0 0 0 0 0 0 0 0 0 0 0 0
0 0 0 0 0 0 0 0 0 0 0 0 0 0 0 0 0 0 0 0 0 0 0 0 0 0 0 0 0 0 0 0 0 0 0 0 0 0 0 0 0 0 0 0
0 0 0 0 0 0 0 0 0 0 0 0 0 0 0 0 0 0 0 0 0 0 0 0 0 0 0 0 0 0 0 0 0 0 0 0 0 0 0 0 0 0 0 0
0 0 0 0 0 0 0 0 0 0 0 0 0 0 0 0 0 0 0 0 0 0 0 0 0 0 0 0 0 0 0 0 0 0 0 0 0 0 0 0 0 0 0 0
0 0 0 0 0 0 0 0 0 0 0 0 0 0 0 0 0 0 0 0 0 0 0 0 0 0 0 0 0 0 0 0 0 0 0 0 0 0 0 0 0 0 0 0
0 0 0 0 0 0 0 0 0 0 0 0 0 0 0 0 0 0 0 0 0 0 0 0 0 0 0 0 0 0 0 0 0 0 0 0 0 0 0 0 0 0 0 0
0 0 0 0 0 0 0 0 0 0 0 0 0 0 0 0 0 0 0 0 0 0 0 0 0 0 0 0 0 0 0 0 0 0 0 0 0 0 0 0 0 0 0 0
0 0 0 0 0 0 0 0 0 0 0 0 0 0 0 0 0 0 0 0 0 0 0 0 0 0 0 0 0 0 0 0 0 0 0 0 0 0 0 0 0 0 0 0
0 0 0 0 0 0 0 0 0 0 0 0 0 0 0 0 0 0 0 0 0 0 0 0 0 0 0 0 0 0 0 0 0 0 0 0 0 0 0 0 0 0 0 0
0 0 0 0 0 0 0 0 0 0 0 0 0 0 0 0 0 0 0 0 0 0 0 0 0 0 0 0 0 0 0 0 0 0 0 0 0 0 0 0 0 0 0 0
0 0 0 0 0 0 0 0 0 0 0 0 0 0 0 0 0 0 0 0 0 0 0 0 0 0 0 0 0 0 0 0 0 0 0 0 0 0 0 0 0 0 0 0
0 0 0 0 0 0 0 0 0 0 0 0 0 0 0 0 0 0 0 0 0 0 0 0 0 0 0 0 0 0 0 0 0 0 0 0 0 0 0 0 0 0 0 0
0 0 0 0 0 0 0 0 0 0 0 0 0 0 0 0 0 0 0 0 0 0 0 0 0 0 0 0 0 0 0 0 0 0 0 0 0 0 0 0 0 0 0 0
0 0 0 0 0 0 0 0 0 0 0 0 0 0 0 0 0 0 0 0 0 0 0 0 0 0 0 0 0 0 0 0 0 0 0 0 0 0 0 0 0 0 0 0
0 0 0 0 0 0 0 0 0 0 0 0 0 0 0 0 0 0 0 0 0 0 0 0 0 0 0 0 0 0 0 0 0 0 0 0 0 0 0 0 0 0 0 0
0 0 0 0 0 0 0 0 0 0 0 0 0 0 0 0 0 0 0 0 0 0 0 0 0 0 0 0 0 0 0 0 0 0 0 0 0 0 0 0 0 0 0 0
0 0 0 0 0 0 0 0 0 0 0 0 0 0 0 0 0 0 0 0 0 0 0 0 0 0 0 0 0 0 0 0 0 0 0 0 0 0 0 0 0 0 0 0
Wind_Speed
3 4 4 4 2 2 3 5 5 4 3 3 5 6 6 7 7 7 7 7 7 6 6 6 6 5 5 5 5 5 5 5 4 2 2 2 3 2 3 3 4 4 5 5
5 3 2 2 4 4 5 6 5 5 3 2 4 4 5 6 7 6 7 7 7 7 7 7 6 6 6 5 5 5 5 5 4 2 2 2 2 2 3 2 3 4 5 5
2 3 3 5 6 6 5 5 5 5 4 3 4 4 5 6 6 6 6 6 7 7 7 7 7 6 6 5 5 4 4 5 3 3 2 2 2 2 2 2 2 4 4 4
2 3 5 5 5 5 4 3 5 6 5 3 4 3 5 7 8 8 8 8 8 7 6 6 6 6 6 5 5 5 5 5 4 3 2 2 1 2 2 2 2 2 3 4
3 3 4 4 3 3 3 5 5 5 4 3 4 4 5 8 8 9 9 9 9 8 8 7 6 6 6 5 5 4 5 4 4 3 3 2 2 2 2 1 2 2 3 3
2 2 2 1 2 4 7 7 5 4 4 4 3 4 3 7 9 10 10 9 9 9 9 7 6 6 5 5 4 4 4 4 3 3 3 2 2 2 2 1 2 2 2 2
5 5 4 4 6 7 7 6 4 5 4 2 2 3 1 3 5 8 10 10 10 9 9 8 8 7 6 6 5 5 5 4 4 3 3 3 2 1 1 1 2 2 2 2
5 5 5 4 4 5 7 6 3 2 3 3 4 3 2 3 4 6 8 10 10 10 9 9 8 7 7 6 6 6 5 5 4 3 3 2 3 1 1 1 1 2 2 3
4 4 4 2 2 4 6 5 2 2 1 2 3 3 4 4 6 8 10 11 11 10 10 9 9 8 7 7 6 6 6 5 4 3 3 2 2 1 1 1 1 2 2 2
3 4 5 4 4 1 3 4 4 4 3 3 3 4 4 9 9 10 11 11 11 10 10 9 8 8 7 6 6 6 5 5 4 4 3 2 2 1 1 1 1 2 3 3
4 4 6 6 6 7 6 6 5 4 3 2 2 3 2 5 9 11 11 11 11 11 10 9 8 8 7 7 6 5 5 5 4 3 3 3 2 1 1 1 1 1 2 2
4 3 4 5 2 2 5 6 7 5 3 3 2 3 3 3 6 9 10 10 10 10 10 9 9 8 7 7 6 6 5 4 4 3 3 2 2 2 1 1 1 1 2 2
6 5 5 6 6 6 5 6 7 6 4 4 4 3 5 5 7 8 10 11 11 11 11 10 9 8 7 7 6 5 5 4 4 3 3 2 2 2 1 1 1 1 1 1
5 5 5 3 1 5 6 7 8 8 6 5 5 3 5 7 8 9 10 11 11 11 11 10 9 8 7 6 6 5 4 4 4 4 3 2 2 2 1 1 1 1 1 1
6 5 5 4 2 4 5 7 9 10 8 6 4 5 6 7 9 10 11 12 12 11 11 11 10 8 7 7 6 5 5 4 4 4 3 2 2 2 1 1 1 1 1 1
6 5 5 5 4 6 6 7 9 9 8 7 6 5 3 6 8 10 12 12 12 12 12 11 10 9 8 7 6 6 5 5 4 4 3 2 2 2 1 1 1 1 1 1
6 6 6 5 5 6 8 8 10 9 8 8 8 5 7 9 10 11 12 12 12 11 11 10 10 9 8 8 7 7 6 5 5 4 3 2 2 2 1 1 1 0 0 1
6 7 4 4 6 9 1 1 5 8 7 7 5 5 9 9 9 8 9 11 11 10 10 9 9 8 8 7 7 6 6 5 5 4 3 2 1 1 1 0 0 1 1 1
6 6 5 5 7 6 4 4 5 7 6 7 8 7 8 9 9 6 7 8 9 9 9 8 8 8 8 8 7 7 6 5 4 4 3 2 2 1 1 0 0 1 1 1
5 6 6 6 7 7 2 4 3 5 5 5 8 10 11 13 9 7 8 8 8 8 8 8 8 8 8 8 7 7 6 5 4 3 2 2 2 1 1 0 1 1 1 1
8 7 9 9 8 5 1 4 6 7 2 6 9 11 13 11 4 7 10 9 9 9 9 9 9 8 7 7 7 7 6 4 4 3 3 2 2 1 1 0 0 1 1 2
8 7 8 7 8 5 5 7 6 0 4 5 8 10 10 7 6 10 10 10 10 10 9 9 8 7 7 7 7 6 5 4 4 3 3 2 2 1 1 0 1 1 1 2
6 5 3 5 2 3 4 3 1 1 2 4 6 8 9 8 8 10 10 10 10 10 9 8 8 8 7 6 5 6 5 4 4 3 3 2 2 1 0 0 1 1 2 2
5 2 4 5 4 2 3 2 2 2 2 3 5 8 9 9 10 10 9 9 10 9 9 8 9 8 7 6 4 4 5 4 4 3 2 2 1 1 0 1 1 2 2 3
4 6 6 6 4 2 3 4 3 2 2 4 6 8 9 9 10 10 9 9 9 9 8 8 8 8 7 6 5 4 4 4 3 3 2 1 0 0 1 1 2 3 3 3
6 7 7 6 6 5 3 3 5 4 4 5 7 8 8 9 10 10 9 9 9 9 8 8 8 7 7 6 5 4 3 3 3 2 1 1 1 1 1 2 2 1 3 3
Wind_Direction
191 198 175 162 170 122 149 159 148 120 118 159 141 136 147 160 170 171 166 164 160 154 145 143 147 151 153 153 150 137 139 132 129 115 115 109 101 96 84 62 50 38 28 24
182 170 133 145 158 157 160 160 144 120 127 158 138 136 152 165 176 179 172 167 165 154 149 146 153 158 160 156 159 152 145 138 131 107 91 83 87 83 68 62 51 33 28 23
179 105 148 169 166 171 172 180 164 148 140 153 176 170 168 165 177 177 179 173 169 165 163 158 161 161 161 163 160 156 150 142 135 135 123 122 124 141 125 91 57 33 27 25
177 152 176 180 175 193 171 172 174 169 182 169 216 193 174 176 177 181 179 174 173 169 168 162 166 167 167 163 159 161 153 150 146 154 149 128 110 86 68 48 54 56 43 34
146 165 187 192 182 199 129 145 163 177 196 189 203 223 166 176 187 185 182 176 172 171 172 168 171 167 163 157 159 161 153 149 146 151 134 158 107 84 87 83 69 51 56 38
143 159 229 166 121 156 143 146 145 181 215 216 203 227 178 182 192 182 179 175 170 168 166 166 166 162 153 151 154 153 151 141 142 154 154 143 105 96 94 71 51 46 59 39
170 166 156 165 150 157 184 181 182 187 201 190 146 226 194 150 186 186 178 173 168 166 165 167 166 165 159 160 158 154 151 146 151 158 148 135 126 119 91 61 58 27 40 34
188 170 171 193 207 182 194 217 246 210 186 144 170 216 125 124 167 184 176 167 164 163 166 168 167 164 162 160 158 156 151 146 144 146 134 127 124 118 68 41 23 30 32 28
199 150 139 164 216 209 188 213 280 293 231 207 172 167 145 145 162 172 169 162 164 164 166 163 160 157 158 158 158 157 148 144 141 139 131 119 108 97 78 75 48 37 30 25
231 160 151 152 172 156 260 201 204 226 213 203 181 193 176 168 171 168 168 168 165 162 161 157 156 153 152 150 151 150 148 142 137 135 129 122 123 118 75 56 53 35 30 31
234 197 160 179 208 192 183 200 222 227 256 260 182 137 85 175 174 173 169 167 164 161 157 154 152 149 147 147 149 151 151 144 140 139 133 137 133 122 109 72 53 28 32 30
211 230 185 183 160 259 231 227 227 231 207 242 265 104 86 167 167 171 164 160 158 156 152 150 148 146 149 150 152 152 152 147 143 145 143 134 122 121 111 78 58 41 43 34
179 217 191 178 178 187 211 221 232 249 241 230 237 123 112 148 159 165 161 157 155 154 151 150 149 151 152 151 152 151 151 146 143 145 145 142 135 123 110 79 57 37 45 49
206 230 245 241 186 180 198 204 214 227 235 229 236 200 173 168 167 163 162 160 158 158 156 155 155 155 153 152 152 150 146 142 142 145 143 137 127 119 120 101 78 37 35 30
219 234 231 255 233 218 224 214 208 224 246 254 243 224 204 186 177 168 162 160 161 162 163 164 163 159 157 154 151 146 145 145 147 147 143 133 126 118 112 94 93 75 26 357
219 230 217 219 208 216 232 230 220 227 238 240 237 242 195 173 166 165 166 164 168 170 172 171 166 163 164 160 155 151 152 149 148 144 132 125 127 118 114 103 73 74 35 342
199 217 224 221 189 217 234 229 215 212 216 220 224 212 165 169 172 174 172 170 173 173 172 173 171 168 166 160 157 156 154 149 150 143 132 137 137 123 124 128 95 80 290 348
211 214 228 225 206 234 224 138 215 218 225 227 226 185 179 174 168 168 171 172 174 173 172 171 170 163 158 152 150 147 144 148 149 142 137 132 133 127 125 96 34 311 332 355
233 218 223 231 237 248 220 194 196 211 225 213 203 182 164 149 148 162 173 176 174 169 165 160 160 153 151 149 148 147 147 147 144 139 139 134 138 135 130 104 324 307 316 321
200 227 235 228 240 246 218 143 179 218 220 187 189 173 161 164 178 171 164 165 159 151 147 146 148 148 148 148 149 152 150 147 144 141 139 127 127 140 148 36 333 326 308 294
185 201 223 234 243 251 96 138 177 213 185 157 175 168 168 183 175 135 147 152 148 144 143 144 147 147 146 149 154 155 149 143 132 135 133 130 135 147 134 75 327 302 302 300
210 206 212 223 233 232 132 163 200 335 74 146 166 169 172 160 121 129 141 144 144 143 143 146 145 139 142 152 159 151 142 129 125 128 130 134 133 127 127 102 324 307 306 293
223 233 227 231 246 50 160 195 307 18 140 149 167 166 158 146 140 141 144 144 144 144 145 148 145 138 139 149 159 147 135 137 139 141 140 139 137 127 129 226 279 291 296 299
192 209 218 224 231 221 207 218 229 218 194 173 167 163 161 154 148 147 145 144 145 145 146 148 147 144 140 140 139 129 132 148 155 155 151 150 157 147 176 290 288 295 301 302
185 186 210 225 219 206 213 210 206 178 157 153 156 161 163 154 152 151 148 148 146 144 144 148 150 146 142 140 134 128 139 156 163 160 155 152 139 297 293 291 314 304 314 324
196 203 214 227 214 218 206 189 193 183 172 163 156 156 158 158 154 150 148 147 147 147 146 148 149 146 142 141 135 133 144 164 167 158 157 177 229 268 279 284 279 257 272 295